| time (UTC) | temp F | wind direction | speed knots | gust knots | rain 1hr in | rain 24hr in | rain mn in | humidity % | barometer mb |
| 20260906113130 | 56 | 115 | 0.0 | 0.0 | 0.00 | 0.00 | 0.00 | 95 | 1020.3 |
| 20260906112632 | 56 | 115 | 0.0 | 0.0 | 0.00 | 0.00 | 0.00 | 95 | 1020.3 |
| 20260906112131 | 56 | 115 | 0.0 | 0.0 | 0.00 | 0.00 | 0.00 | 95 | 1020.2 |
| 20260906111633 | 57 | 115 | 0.0 | 0.0 | 0.00 | 0.00 | 0.00 | 94 | 1020.3 |
| 20260906111130 | 57 | 115 | 0.0 | 0.9 | 0.00 | 0.00 | 0.00 | 94 | 1020.3 |
| 20260906110630 | 57 | 115 | 0.0 | 0.9 | 0.00 | 0.00 | 0.00 | 94 | 1020.3 |
| 20260906110130 | 57 | 115 | 0.0 | 0.9 | 0.00 | 0.00 | 0.00 | 94 | 1020.4 |
| 20260906105624 | 57 | 115 | 0.0 | 0.0 | 0.00 | 0.00 | 0.00 | 94 | 1020.3 |
| 20260906105120 | 57 | 115 | 0.0 | 0.9 | 0.00 | 0.00 | 0.00 | 94 | 1020.2 |
| 20260906104108 | 57 | 115 | 0.0 | 0.9 | 0.00 | 0.00 | 0.00 | 93 | 1020.1 |
| 20260906103602 | 58 | 115 | 0.0 | 0.9 | 0.00 | 0.00 | 0.00 | 93 | 1020.0 |
| 20260906102549 | 58 | 115 | 0.0 | 1.7 | 0.00 | 0.00 | 0.00 | 93 | 1020.1 |
| 20260906102044 | 58 | 115 | 0.0 | 2.6 | 0.00 | 0.00 | 0.00 | 93 | 1020.1 |
| 20260906101536 | 58 | 115 | 0.9 | 2.6 | 0.00 | 0.00 | 0.00 | 93 | 1020.2 |
| 20260906101032 | 58 | 115 | 0.9 | 1.7 | 0.00 | 0.00 | 0.00 | 93 | 1020.1 |
| 20260906100525 | 58 | 116 | 0.0 | 1.7 | 0.00 | 0.00 | 0.00 | 93 | 1020.0 |
| 20260906100020 | 58 | 116 | 0.0 | 2.6 | 0.00 | 0.00 | 0.00 | 93 | 1020.1 |
| 20260906095514 | 58 | 116 | 0.9 | 3.5 | 0.00 | 0.00 | 0.00 | 93 | 1019.9 |
| 20260906094502 | 58 | 79 | 0.0 | 2.6 | 0.00 | 0.00 | 0.00 | 93 | 1019.8 |
| 20260906093955 | 58 | 71 | 0.0 | 2.6 | 0.00 | 0.00 | 0.00 | 93 | 1019.8 |
| 20260906093449 | 58 | 71 | 0.9 | 2.6 | 0.00 | 0.00 | 0.00 | 93 | 1019.9 |
| 20260906092943 | 58 | 71 | 0.9 | 2.6 | 0.00 | 0.00 | 0.00 | 93 | 1019.8 |
| 20260906092437 | 58 | 71 | 0.9 | 2.6 | 0.00 | 0.00 | 0.00 | 93 | 1019.8 |
| 20260906091931 | 58 | 71 | 0.0 | 2.6 | 0.00 | 0.00 | 0.00 | 93 | 1019.8 |
| 20260906091426 | 58 | 69 | 0.0 | 2.6 | 0.00 | 0.00 | 0.00 | 93 | 1019.9 |
| 20260906090920 | 58 | 70 | 0.9 | 2.6 | 0.00 | 0.00 | 0.00 | 93 | 1019.8 |
| 20260906090413 | 58 | 70 | 0.9 | 2.6 | 0.00 | 0.00 | 0.00 | 93 | 1019.8 |
| 20260906085907 | 58 | 70 | 0.9 | 2.6 | 0.00 | 0.00 | 0.00 | 94 | 1019.9 |
| 20260906085402 | 58 | 70 | 0.0 | 1.7 | 0.00 | 0.00 | 0.00 | 94 | 1019.8 |
| 20260906083843 | 59 | 67 | 0.0 | 1.7 | 0.00 | 0.00 | 0.00 | 94 | 1019.6 |
| 20260906083336 | 59 | 67 | 0.0 | 0.0 | 0.00 | 0.00 | 0.00 | 93 | 1019.5 |
| 20260906082832 | 59 | 67 | 0.0 | 0.0 | 0.00 | 0.00 | 0.00 | 93 | 1019.5 |
| 20260906082325 | 59 | 67 | 0.0 | 0.0 | 0.00 | 0.00 | 0.00 | 93 | 1019.5 |
| 20260906081820 | 59 | 67 | 0.0 | 0.0 | 0.00 | 0.00 | 0.00 | 93 | 1019.4 |
| 20260906081313 | 59 | 67 | 0.0 | 0.0 | 0.00 | 0.00 | 0.00 | 93 | 1019.4 |
| 20260906080804 | 59 | 67 | 0.0 | 0.9 | 0.00 | 0.00 | 0.00 | 92 | 1019.4 |
| 20260906080258 | 59 | 67 | 0.0 | 0.9 | 0.00 | 0.00 | 0.00 | 92 | 1019.3 |
| 20260906075754 | 60 | 67 | 0.0 | 0.0 | 0.00 | 0.00 | 0.00 | 92 | 1019.1 |
| 20260906074235 | 60 | 67 | 0.0 | 0.9 | 0.00 | 0.00 | 0.00 | 91 | 1019.0 |
| 20260906073729 | 60 | 67 | 0.0 | 1.7 | 0.00 | 0.00 | 0.00 | 91 | 1018.9 |
| 20260906072212 | 60 | 64 | 0.0 | 0.0 | 0.00 | 0.00 | 0.00 | 91 | 1018.8 |
| 20260906071200 | 61 | 64 | 0.0 | 0.0 | 0.00 | 0.00 | 0.00 | 91 | 1018.9 |
| 20260906070653 | 61 | 64 | 0.0 | 0.0 | 0.00 | 0.00 | 0.00 | 90 | 1019.0 |
| 20260906070148 | 61 | 64 | 0.0 | 0.0 | 0.00 | 0.00 | 0.00 | 90 | 1019.1 |
| 20260906065642 | 61 | 64 | 0.0 | 0.0 | 0.00 | 0.00 | 0.00 | 90 | 1019.1 |
| 20260906065136 | 61 | 64 | 0.0 | 0.0 | 0.00 | 0.00 | 0.00 | 89 | 1019.1 |
| 20260906064629 | 62 | 64 | 0.0 | 0.0 | 0.00 | 0.00 | 0.00 | 89 | 1019.3 |
| 20260906064124 | 62 | 64 | 0.0 | 0.0 | 0.00 | 0.00 | 0.00 | 88 | 1019.1 |
| 20260906063617 | 62 | 64 | 0.0 | 0.0 | 0.00 | 0.00 | 0.00 | 88 | 1019.1 |
| 20260906063112 | 62 | 64 | 0.0 | 0.0 | 0.00 | 0.00 | 0.00 | 87 | 1019.1 |
| 20260906062604 | 63 | 64 | 0.0 | 0.9 | 0.00 | 0.00 | 0.00 | 87 | 1019.1 |
| 20260906062059 | 63 | 64 | 0.0 | 0.9 | 0.00 | 0.00 | 0.00 | 87 | 1019.0 |
| 20260906061553 | 63 | 64 | 0.0 | 3.5 | 0.00 | 0.00 | 0.00 | 86 | 1019.0 |
| 20260906061047 | 63 | 64 | 0.9 | 3.5 | 0.00 | 0.00 | 0.00 | 86 | 1019.0 |
| 20260906060036 | 63 | 61 | 1.7 | 5.2 | 0.00 | 0.00 | 0.00 | 86 | 1018.9 |
| 20260906055529 | 64 | 96 | 1.7 | 5.2 | 0.00 | 0.00 | 0.00 | 86 | 1018.9 |
| 20260906055025 | 64 | 69 | 1.7 | 5.2 | 0.00 | 0.00 | 0.00 | 86 | 1018.9 |
| 20260906054518 | 64 | 67 | 0.9 | 7.0 | 0.00 | 0.00 | 0.00 | 86 | 1018.8 |
| 20260906054012 | 64 | 71 | 1.7 | 7.0 | 0.00 | 0.00 | 0.00 | 86 | 1018.8 |
| 20260906053506 | 64 | 71 | 1.7 | 4.3 | 0.00 | 0.00 | 0.00 | 86 | 1018.8 |
| 20260906052453 | 64 | 68 | 0.9 | 5.2 | 0.00 | 0.00 | 0.00 | 87 | 1018.7 |
| 20260906051947 | 64 | 106 | 0.9 | 7.8 | 0.00 | 0.00 | 0.00 | 87 | 1018.9 |
| 20260906051442 | 64 | 98 | 0.9 | 7.8 | 0.00 | 0.00 | 0.00 | 87 | 1018.9 |
| 20260906050936 | 65 | 112 | 0.9 | 2.6 | 0.00 | 0.00 | 0.00 | 87 | 1018.9 |
| 20260906050430 | 65 | 156 | 0.0 | 2.6 | 0.00 | 0.00 | 0.00 | 87 | 1018.8 |
| 20260906045921 | 65 | 80 | 0.9 | 2.6 | 0.00 | 0.00 | 0.00 | 87 | 1018.7 |
| 20260906045418 | 65 | 80 | 0.9 | 4.3 | 0.00 | 0.00 | 0.00 | 88 | 1018.7 |
| 20260906044911 | 65 | 76 | 0.9 | 4.3 | 0.00 | 0.00 | 0.00 | 88 | 1018.7 |
| 20260906043900 | 66 | 109 | 0.9 | 2.6 | 0.00 | 0.00 | 0.00 | 89 | 1018.7 |
| 20260906043353 | 66 | 110 | 0.9 | 2.6 | 0.00 | 0.00 | 0.00 | 89 | 1018.6 |
| 20260906042847 | 66 | 81 | 0.9 | 3.5 | 0.00 | 0.00 | 0.00 | 90 | 1018.5 |
| 20260906041836 | 66 | 57 | 0.9 | 4.3 | 0.00 | 0.00 | 0.00 | 90 | 1018.3 |
| 20260906041330 | 66 | 86 | 0.9 | 3.5 | 0.00 | 0.00 | 0.00 | 90 | 1018.3 |
| 20260906040823 | 66 | 96 | 0.9 | 2.6 | 0.00 | 0.00 | 0.00 | 90 | 1018.4 |
| 20260906040316 | 66 | 97 | 0.0 | 2.6 | 0.00 | 0.00 | 0.00 | 91 | 1018.4 |
| 20260906035810 | 66 | 95 | 0.0 | 3.5 | 0.00 | 0.00 | 0.00 | 91 | 1018.3 |
| 20260906035306 | 66 | 94 | 0.0 | 3.5 | 0.00 | 0.00 | 0.00 | 91 | 1018.3 |
| 20260906034804 | 66 | 95 | 0.0 | 1.7 | 0.00 | 0.00 | 0.00 | 91 | 1018.3 |
| 20260906034304 | 67 | 95 | 0.0 | 1.7 | 0.00 | 0.00 | 0.00 | 91 | 1018.3 |
| 20260906033803 | 67 | 96 | 0.0 | 0.9 | 0.00 | 0.00 | 0.00 | 91 | 1018.1 |
| 20260906033302 | 67 | 96 | 0.0 | 1.7 | 0.00 | 0.00 | 0.00 | 91 | 1018.1 |
| 20260906032800 | 67 | 96 | 0.0 | 1.7 | 0.00 | 0.00 | 0.00 | 91 | 1018.0 |
| 20260906032258 | 67 | 96 | 0.0 | 1.7 | 0.00 | 0.00 | 0.00 | 92 | 1018.1 |
| 20260906031757 | 67 | 96 | 0.0 | 1.7 | 0.00 | 0.00 | 0.00 | 92 | 1018.0 |
| 20260906031258 | 67 | 96 | 0.0 | 0.9 | 0.00 | 0.00 | 0.00 | 93 | 1018.1 |
| 20260906030757 | 67 | 96 | 0.0 | 2.6 | 0.00 | 0.00 | 0.00 | 93 | 1018.1 |
| 20260906030254 | 67 | 95 | 0.0 | 2.6 | 0.00 | 0.00 | 0.00 | 94 | 1018.1 |
| 20260906025255 | 68 | 64 | 0.0 | 1.7 | 0.00 | 0.00 | 0.00 | 95 | 1018.1 |
| 20260906024753 | 68 | 64 | 0.0 | 0.9 | 0.00 | 0.00 | 0.00 | 96 | 1018.1 |
| 20260906024253 | 68 | 64 | 0.0 | 1.7 | 0.00 | 0.00 | 0.00 | 96 | 1018.0 |
| 20260906023752 | 69 | 63 | 0.0 | 1.7 | 0.00 | 0.00 | 0.00 | 96 | 1018.0 |
| 20260906023249 | 69 | 63 | 0.0 | 0.0 | 0.00 | 0.00 | 0.00 | 96 | 1017.9 |
| 20260906022747 | 69 | 63 | 0.0 | 0.9 | 0.00 | 0.00 | 0.00 | 97 | 1017.9 |
| 20260906022248 | 69 | 63 | 0.0 | 1.7 | 0.00 | 0.00 | 0.00 | 97 | 1017.8 |
| 20260906021744 | 69 | 63 | 0.0 | 1.7 | 0.00 | 0.00 | 0.00 | 97 | 1017.8 |
| 20260906021244 | 69 | 63 | 0.0 | 0.0 | 0.00 | 0.00 | 0.00 | 97 | 1017.7 |
| 20260906020739 | 69 | 63 | 0.0 | 0.0 | 0.00 | 0.00 | 0.00 | 97 | 1017.7 |
| 20260906020232 | 70 | 63 | 0.0 | 0.0 | 0.00 | 0.00 | 0.00 | 97 | 1017.5 |
| 20260906015727 | 70 | 63 | 0.0 | 0.0 | 0.00 | 0.00 | 0.00 | 97 | 1017.5 |
| 20260906014715 | 70 | 63 | 0.0 | 2.6 | 0.00 | 0.00 | 0.00 | 97 | 1017.6 |
| 20260906013701 | 70 | 76 | 0.0 | 1.7 | 0.00 | 0.00 | 0.00 | 97 | 1017.6 |
| 20260906013156 | 70 | 76 | 0.0 | 0.0 | 0.00 | 0.00 | 0.00 | 96 | 1017.5 |
| 20260906012649 | 70 | 76 | 0.0 | 0.0 | 0.00 | 0.00 | 0.00 | 96 | 1017.6 |
| 20260906012144 | 70 | 76 | 0.0 | 0.0 | 0.00 | 0.00 | 0.00 | 96 | 1017.5 |
| 20260906011638 | 70 | 76 | 0.0 | 0.9 | 0.00 | 0.00 | 0.00 | 96 | 1017.4 |
| 20260906011132 | 70 | 76 | 0.0 | 0.9 | 0.00 | 0.00 | 0.00 | 95 | 1017.5 |
| 20260906005615 | 70 | 76 | 0.0 | 0.0 | 0.00 | 0.00 | 0.00 | 95 | 1017.0 |
| 20260906004602 | 70 | 76 | 0.0 | 1.7 | 0.00 | 0.00 | 0.00 | 94 | 1017.0 |
| 20260906004056 | 71 | 76 | 0.0 | 1.7 | 0.00 | 0.00 | 0.00 | 94 | 1017.0 |
| 20260906003550 | 71 | 76 | 0.0 | 1.7 | 0.00 | 0.00 | 0.00 | 94 | 1017.0 |
| 20260906003045 | 71 | 76 | 0.0 | 1.7 | 0.00 | 0.00 | 0.00 | 93 | 1017.0 |
| 20260906002537 | 71 | 76 | 0.0 | 2.6 | 0.00 | 0.00 | 0.00 | 93 | 1017.0 |
| 20260906001527 | 72 | 76 | 0.0 | 1.7 | 0.00 | 0.00 | 0.00 | 91 | 1016.9 |
| 20260906000514 | 73 | 71 | 0.0 | 0.0 | 0.00 | 0.00 | 0.00 | 89 | 1017.0 |
| 20260906000008 | 73 | 71 | 0.0 | 0.0 | 0.00 | 0.00 | 0.00 | 88 | 1016.9 |
| 20260905235501 | 73 | 71 | 0.0 | 0.0 | 0.00 | 0.00 | 0.00 | 88 | 1016.9 |
| 20260905234955 | 73 | 71 | 0.0 | 0.0 | 0.00 | 0.00 | 0.00 | 87 | 1017.0 |
| 20260905233945 | 74 | 71 | 0.0 | 2.6 | 0.00 | 0.00 | 0.00 | 85 | 1016.9 |
| 20260905233437 | 74 | 71 | 0.0 | 2.6 | 0.00 | 0.00 | 0.00 | 85 | 1016.8 |
| 20260905232932 | 74 | 71 | 0.0 | 2.6 | 0.00 | 0.00 | 0.00 | 85 | 1016.8 |
| 20260905232427 | 75 | 71 | 0.9 | 2.6 | 0.00 | 0.00 | 0.00 | 85 | 1016.8 |
| 20260905231921 | 75 | 71 | 1.7 | 5.2 | 0.00 | 0.00 | 0.00 | 84 | 1016.7 |
| 20260905231415 | 75 | 71 | 1.7 | 5.2 | 0.00 | 0.00 | 0.00 | 83 | 1016.8 |
| 20260905230908 | 75 | 60 | 1.7 | 5.2 | 0.00 | 0.00 | 0.00 | 84 | 1016.8 |
| 20260905225857 | 75 | 61 | 2.6 | 6.1 | 0.00 | 0.00 | 0.00 | 84 | 1016.8 |
| 20260905225351 | 75 | 55 | 2.6 | 7.0 | 0.00 | 0.00 | 0.00 | 83 | 1016.7 |
| 20260905224843 | 75 | 54 | 2.6 | 7.8 | 0.00 | 0.00 | 0.00 | 83 | 1016.6 |
| 20260905224338 | 75 | 64 | 2.6 | 7.8 | 0.00 | 0.00 | 0.00 | 85 | 1016.7 |
| 20260905223832 | 75 | 77 | 2.6 | 7.0 | 0.00 | 0.00 | 0.00 | 85 | 1016.7 |
| 20260905223327 | 75 | 31 | 2.6 | 8.7 | 0.00 | 0.00 | 0.00 | 87 | 1016.6 |
| 20260905222821 | 74 | 56 | 3.5 | 8.7 | 0.00 | 0.00 | 0.00 | 87 | 1016.6 |
| 20260905221808 | 74 | 51 | 1.7 | 7.0 | 0.00 | 0.00 | 0.00 | 90 | 1016.6 |
| 20260905221303 | 74 | 59 | 0.9 | 5.2 | 0.00 | 0.00 | 0.00 | 91 | 1016.5 |
| 20260905220756 | 74 | 58 | 0.9 | 4.3 | 0.00 | 0.00 | 0.00 | 91 | 1016.4 |
| 20260905220251 | 74 | 58 | 1.7 | 4.3 | 0.00 | 0.00 | 0.00 | 91 | 1016.3 |
| 20260905215744 | 73 | 59 | 1.7 | 5.2 | 0.00 | 0.00 | 0.00 | 91 | 1016.2 |
| 20260905215237 | 73 | 57 | 2.6 | 7.8 | 0.00 | 0.00 | 0.00 | 91 | 1016.2 |
| 20260905214733 | 73 | 54 | 3.5 | 7.8 | 0.00 | 0.00 | 0.00 | 91 | 1016.2 |
| 20260905214226 | 73 | 65 | 4.3 | 8.7 | 0.00 | 0.00 | 0.00 | 92 | 1016.2 |
| 20260905213721 | 72 | 44 | 4.3 | 9.6 | 0.00 | 0.00 | 0.00 | 93 | 1016.2 |
| 20260905213215 | 72 | 60 | 3.5 | 9.6 | 0.00 | 0.00 | 0.00 | 94 | 1016.1 |
| 20260905212709 | 72 | 44 | 3.5 | 7.8 | 0.00 | 0.00 | 0.00 | 96 | 1016.0 |
| 20260905212203 | 71 | 55 | 3.5 | 7.8 | 0.00 | 0.00 | 0.00 | 96 | 1016.0 |
| 20260905211656 | 71 | 55 | 3.5 | 7.0 | 0.00 | 0.00 | 0.00 | 97 | 1016.1 |
| 20260905210644 | 71 | 59 | 1.7 | 7.0 | 0.00 | 0.00 | 0.00 | 98 | 1016.1 |
| 20260905210138 | 71 | 100 | 1.7 | 7.0 | 0.00 | 0.00 | 0.00 | 98 | 1016.1 |
| 20260905205633 | 71 | 82 | 1.7 | 4.3 | 0.00 | 0.00 | 0.00 | 98 | 1016.0 |
| 20260905205127 | 70 | 65 | 1.7 | 4.3 | 0.00 | 0.00 | 0.00 | 98 | 1016.1 |
| 20260905204621 | 70 | 92 | 1.7 | 4.3 | 0.00 | 0.00 | 0.00 | 98 | 1016.1 |
| 20260905204115 | 70 | 58 | 1.7 | 4.3 | 0.00 | 0.00 | 0.00 | 98 | 1016.2 |
| 20260905203608 | 70 | 67 | 1.7 | 4.3 | 0.00 | 0.00 | 0.00 | 97 | 1016.3 |
| 20260905203102 | 70 | 59 | 1.7 | 4.3 | 0.00 | 0.00 | 0.00 | 97 | 1016.4 |
| 20260905202556 | 70 | 63 | 2.6 | 7.8 | 0.00 | 0.00 | 0.00 | 97 | 1016.5 |
| 20260905202049 | 70 | 73 | 3.5 | 7.8 | 0.00 | 0.00 | 0.00 | 96 | 1016.4 |
| 20260905201543 | 70 | 53 | 3.5 | 7.0 | 0.00 | 0.00 | 0.00 | 96 | 1016.5 |
| 20260905201039 | 70 | 65 | 3.5 | 7.8 | 0.00 | 0.00 | 0.00 | 96 | 1016.6 |
| 20260905200531 | 70 | 54 | 3.5 | 7.8 | 0.00 | 0.00 | 0.00 | 96 | 1016.7 |
| 20260905200027 | 70 | 53 | 3.5 | 7.0 | 0.00 | 0.00 | 0.00 | 96 | 1016.7 |
| 20260905195013 | 70 | 70 | 2.6 | 7.0 | 0.00 | 0.00 | 0.00 | 96 | 1016.6 |
| 20260905194508 | 70 | 36 | 2.6 | 7.8 | 0.00 | 0.00 | 0.00 | 96 | 1016.6 |
| 20260905194003 | 70 | 48 | 2.6 | 7.8 | 0.00 | 0.00 | 0.00 | 96 | 1016.6 |
| 20260905193455 | 69 | 70 | 3.5 | 9.6 | 0.00 | 0.00 | 0.00 | 96 | 1016.7 |
| 20260905192950 | 70 | 63 | 3.5 | 9.6 | 0.00 | 0.00 | 0.00 | 95 | 1016.8 |
| 20260905192445 | 70 | 17 | 4.3 | 8.7 | 0.00 | 0.00 | 0.00 | 95 | 1016.8 |
| 20260905191944 | 70 | 46 | 4.3 | 9.6 | 0.00 | 0.00 | 0.00 | 95 | 1016.9 |
| 20260905191444 | 70 | 57 | 4.3 | 9.6 | 0.00 | 0.00 | 0.00 | 94 | 1016.9 |
| 20260905190941 | 70 | 60 | 4.3 | 12.2 | 0.00 | 0.00 | 0.00 | 93 | 1016.8 |
| 20260905190441 | 71 | 39 | 4.3 | 12.2 | 0.00 | 0.00 | 0.00 | 93 | 1016.8 |
| 20260905185942 | 71 | 44 | 3.5 | 8.7 | 0.00 | 0.00 | 0.00 | 93 | 1016.8 |
| 20260905184941 | 71 | 65 | 3.5 | 9.6 | 0.00 | 0.00 | 0.00 | 92 | 1016.7 |
| 20260905183936 | 72 | 69 | 4.3 | 10.4 | 0.00 | 0.00 | 0.00 | 92 | 1016.9 |
| 20260905183436 | 72 | 71 | 3.5 | 8.7 | 0.00 | 0.00 | 0.00 | 92 | 1016.8 |
| 20260905182936 | 72 | 29 | 3.5 | 7.8 | 0.00 | 0.00 | 0.00 | 92 | 1016.8 |
| 20260905181936 | 72 | 42 | 3.5 | 7.8 | 0.00 | 0.00 | 0.00 | 92 | 1016.7 |
| 20260905180936 | 72 | 65 | 3.5 | 7.8 | 0.00 | 0.00 | 0.00 | 91 | 1016.6 |
| 20260905180430 | 72 | 68 | 2.6 | 7.0 | 0.00 | 0.00 | 0.00 | 92 | 1016.6 |
| 20260905175925 | 72 | 51 | 2.6 | 6.1 | 0.00 | 0.00 | 0.00 | 92 | 1016.7 |
| 20260905175418 | 72 | 70 | 3.5 | 7.0 | 0.00 | 0.00 | 0.00 | 92 | 1016.7 |
| 20260905174918 | 72 | 59 | 2.6 | 7.0 | 0.00 | 0.00 | 0.00 | 91 | 1016.8 |
| 20260905174420 | 72 | 65 | 1.7 | 7.0 | 0.00 | 0.00 | 0.00 | 92 | 1016.8 |
| 20260905173920 | 72 | 67 | 1.7 | 5.2 | 0.00 | 0.00 | 0.00 | 92 | 1016.8 |
| 20260905173419 | 73 | 71 | 1.7 | 7.0 | 0.00 | 0.00 | 0.00 | 92 | 1016.8 |
| 20260905172916 | 73 | 72 | 1.7 | 7.0 | 0.00 | 0.00 | 0.00 | 92 | 1016.7 |
| 20260905172412 | 72 | 76 | 2.6 | 7.0 | 0.00 | 0.00 | 0.00 | 92 | 1016.8 |
| 20260905171412 | 73 | 61 | 3.5 | 7.8 | 0.00 | 0.00 | 0.00 | 92 | 1016.8 |
| 20260905170912 | 73 | 65 | 2.6 | 7.0 | 0.00 | 0.00 | 0.00 | 91 | 1016.7 |
| 20260905170413 | 73 | 76 | 1.7 | 6.1 | 0.00 | 0.00 | 0.00 | 92 | 1016.7 |
| 20260905165914 | 73 | 118 | 1.7 | 6.1 | 0.00 | 0.00 | 0.00 | 92 | 1016.8 |
| 20260905165414 | 72 | 124 | 1.7 | 8.7 | 0.00 | 0.00 | 0.00 | 93 | 1016.7 |
| 20260905164915 | 72 | 74 | 2.6 | 8.7 | 0.00 | 0.00 | 0.00 | 94 | 1016.7 |
| 20260905164409 | 72 | 63 | 4.3 | 9.6 | 0.00 | 0.00 | 0.00 | 93 | 1016.6 |
| 20260905163903 | 72 | 71 | 3.5 | 9.6 | 0.00 | 0.00 | 0.00 | 92 | 1016.7 |
| 20260905163401 | 72 | 63 | 3.5 | 7.8 | 0.00 | 0.00 | 0.00 | 93 | 1016.7 |
| 20260905162902 | 72 | 53 | 3.5 | 7.8 | 0.00 | 0.00 | 0.00 | 93 | 1016.6 |
| 20260905162401 | 72 | 52 | 3.5 | 7.8 | 0.00 | 0.01 | 0.00 | 92 | 1016.6 |
| 20260905161903 | 72 | 59 | 3.5 | 7.8 | 0.00 | 0.01 | 0.00 | 93 | 1016.6 |
| 20260905161401 | 72 | 63 | 2.6 | 7.0 | 0.00 | 0.01 | 0.00 | 93 | 1016.5 |
| 20260905160901 | 72 | 51 | 2.6 | 7.0 | 0.00 | 0.02 | 0.00 | 93 | 1016.6 |
| 20260905155404 | 71 | 61 | 4.3 | 8.7 | 0.00 | 0.03 | 0.00 | 94 | 1016.6 |
| 20260905154357 | 71 | 67 | 2.6 | 7.8 | 0.00 | 0.03 | 0.00 | 96 | 1016.5 |
| 20260905153858 | 71 | 53 | 2.6 | 8.7 | 0.00 | 0.03 | 0.00 | 97 | 1016.5 |
| 20260905151358 | 70 | 74 | 1.7 | 7.0 | 0.00 | 0.11 | 0.00 | 97 | 1016.2 |
| 20260905150859 | 70 | 82 | 0.9 | 4.3 | 0.00 | 0.12 | 0.00 | 98 | 1016.4 |
| 20260905150351 | 70 | 85 | 1.7 | 5.2 | 0.00 | 0.13 | 0.00 | 98 | 1016.4 |
| 20260905145855 | 70 | 69 | 3.5 | 7.8 | 0.00 | 0.13 | 0.00 | 98 | 1016.3 |
| 20260905145353 | 70 | 57 | 3.5 | 7.8 | 0.00 | 0.13 | 0.00 | 98 | 1016.3 |
| 20260905144353 | 70 | 68 | 2.6 | 7.8 | 0.00 | 0.13 | 0.00 | 98 | 1016.4 |
| 20260905143852 | 70 | 64 | 2.6 | 6.1 | 0.00 | 0.13 | 0.00 | 98 | 1016.4 |
| 20260905143351 | 70 | 69 | 2.6 | 6.1 | 0.00 | 0.13 | 0.00 | 98 | 1016.2 |
| 20260905142854 | 70 | 58 | 3.5 | 7.0 | 0.00 | 0.13 | 0.00 | 98 | 1016.2 |
| 20260905142354 | 70 | 57 | 3.5 | 8.7 | 0.00 | 0.13 | 0.00 | 97 | 1016.1 |
| 20260905141854 | 70 | 75 | 2.6 | 8.7 | 0.00 | 0.13 | 0.00 | 97 | 1016.1 |
| 20260905141355 | 71 | 144 | 2.6 | 7.8 | 0.00 | 0.14 | 0.00 | 98 | 1016.1 |
| 20260905140853 | 71 | 82 | 2.6 | 7.8 | 0.00 | 0.14 | 0.00 | 97 | 1016.0 |
| 20260905140351 | 71 | 84 | 2.6 | 5.2 | 0.00 | 0.19 | 0.00 | 98 | 1016.0 |
| 20260905135852 | 71 | 89 | 2.6 | 7.8 | 0.00 | 0.19 | 0.00 | 98 | 1015.9 |
| 20260905134852 | 71 | 127 | 2.6 | 7.0 | 0.00 | 0.19 | 0.00 | 98 | 1015.9 |
| 20260905134353 | 71 | 96 | 2.6 | 7.0 | 0.00 | 0.19 | 0.00 | 98 | 1015.8 |
| 20260905133851 | 71 | 75 | 1.7 | 5.2 | 0.00 | 0.23 | 0.00 | 98 | 1015.8 |
| 20260905133346 | 71 | 69 | 1.7 | 5.2 | 0.00 | 0.24 | 0.00 | 98 | 1015.9 |
| 20260905132839 | 71 | 73 | 1.7 | 6.1 | 0.00 | 0.24 | 0.00 | 99 | 1015.8 |
| 20260905132333 | 70 | 101 | 2.6 | 10.4 | 0.00 | 0.24 | 0.00 | 99 | 1015.8 |
| 20260905131828 | 70 | 111 | 3.5 | 10.4 | 0.00 | 0.24 | 0.00 | 99 | 1015.8 |
| 20260905130827 | 70 | 79 | 1.7 | 7.8 | 0.00 | 0.24 | 0.00 | 99 | 1015.7 |
| 20260905125322 | 70 | 79 | 0.9 | 4.3 | 0.00 | 0.29 | 0.00 | 99 | 1015.6 |
| 20260905124820 | 70 | 74 | 1.7 | 4.3 | 0.00 | 0.33 | 0.00 | 99 | 1015.6 |
| 20260905124315 | 70 | 67 | 0.9 | 4.3 | 0.00 | 0.38 | 0.00 | 99 | 1015.5 |
| 20260905123816 | 70 | 78 | 1.7 | 7.0 | 0.00 | 0.38 | 0.00 | 99 | 1015.5 |
| 20260905123315 | 70 | 80 | 1.7 | 7.0 | 0.00 | 0.38 | 0.00 | 99 | 1015.2 |
| 20260905122813 | 70 | 64 | 1.7 | 6.1 | 0.00 | 0.38 | 0.00 | 99 | 1015.1 |
| 20260905122313 | 70 | 76 | 1.7 | 7.8 | 0.00 | 0.38 | 0.00 | 99 | 1015.1 |
| 20260905121810 | 70 | 71 | 1.7 | 8.7 | 0.00 | 0.38 | 0.00 | 99 | 1015.1 |
| 20260905121311 | 70 | 58 | 2.6 | 8.7 | 0.00 | 0.40 | 0.00 | 99 | 1015.2 |
| 20260905120812 | 70 | 90 | 2.6 | 5.2 | 0.00 | 0.40 | 0.00 | 99 | 1015.1 |
| 20260905120307 | 70 | 73 | 2.6 | 5.2 | 0.00 | 0.40 | 0.00 | 99 | 1015.1 |
| 20260905115808 | 70 | 71 | 2.6 | 7.0 | 0.00 | 0.40 | 0.00 | 99 | 1015.1 |
| 20260905115307 | 70 | 69 | 2.6 | 7.0 | 0.00 | 0.41 | 0.00 | 99 | 1015.1 |
| 20260905114810 | 70 | 83 | 0.9 | 3.5 | 0.00 | 0.41 | 0.00 | 99 | 1015.0 |
| 20260905114304 | 70 | 109 | 0.9 | 2.6 | 0.00 | 0.42 | 0.00 | 99 | 1014.9 |
| 20260905113757 | 70 | 88 | 0.9 | 3.5 | 0.00 | 0.43 | 0.00 | 99 | 1015.0 |
| 20260905113251 | 69 | 87 | 0.9 | 3.5 | 0.00 | 0.44 | 0.00 | 99 | 1014.9 |